Regional Weather Roundup
Issued by NWS

Home | Current Version | Previous Version | Text Only | Print | Product List | Glossary Off
Versions: 1 2 3 4 5 6 7 8 9 10 11 12 13 14 15 16 17 18 19 20 21 22 23 24 25 26 27 28 29 30 31 32 33 34 35 36 37 38 39 40 41 42 43 44 45 46 47 48 49 50

000
ASUS44 KMEG 281800
RWRTN
TENNESSEE HOURLY STATE WEATHER ROUNDUP
NATIONAL WEATHER SERVICE MEMPHIS TN
100 PM CDT THU AUG 28 2014

TNZ002-004-019-021-049-052-054-088>092-281900-
WEST TENNESSEE

CITY           SKY/WX    TMP DP  RH WIND       PRES   REMARKS
MEMPHIS INTL   MOSUNNY   94  61  33 VRB6      30.02F HX  94
NWS MEMPHIS      N/A     95 N/A N/A MISG        N/A
JACKSON        MOSUNNY   90  72  55 CALM      30.01F HX  97
DYERSBURG      SUNNY     90  68  48 NW6       30.01F HX  93
UNION CITY     MOSUNNY   90  75  62 VRB5      30.00F HX 100
PARIS          SUNNY     84  70  61 CALM      30.03F
LEXINGTON      MOSUNNY   91  68  46 VRB7      30.01F HX  95
SAVANNAH       MOSUNNY   91  70  49 S6        30.02F HX  97
$$

TNZ008-025-027-028-033-062-065-066-281900-
NORTH MIDDLE TENNESSEE

CITY           SKY/WX    TMP DP  RH WIND       PRES   REMARKS
NASHVILLE      MOSUNNY   91  70  49 E7        30.03F HX  96
CLARKSVILLE    SUNNY     90  71  53 S6        30.02F HX  96
COOKEVILLE     PTSUNNY   88  72  58 CALM      30.05F HX  94
CROSSVILLE     PTSUNNY   84  67  56 CALM      30.11F
$$

TNZ061-075-076-078-094-096-097-281900-
SOUTH MIDDLE TENNESSEE

CITY           SKY/WX    TMP DP  RH WIND       PRES   REMARKS
FAYETTEVILLE   SUNNY     88  66  48 S7        30.04F HX  90
TULLAHOMA      SUNNY     88  64  45 SE7       30.06F
WINCHESTER     SUNNY     90  66  45 S6        30.05F HX  92
SHELBYVILLE    SUNNY     90  72  55 CALM      30.04F HX  96
$$

TNZ017-018-042-046-047-281900-
NORTHEAST TENNESSEE

CITY           SKY/WX    TMP DP  RH WIND       PRES   REMARKS
TRI CITIES     MOSUNNY   86  65  49 VRB3      30.08F
ELIZABETHTON   MOCLDY    86  68  54 W7        30.07F
$$

TNZ012-013-036-069-073-074-281900-
CENTRAL EAST TENNESSEE

CITY           SKY/WX    TMP DP  RH WIND       PRES   REMARKS
KNOXVILLE      MOSUNNY   87  68  52 VRB3      30.04F HX  90
OAK RIDGE      SUNNY     87  68  52 W3        30.06F HX  90
GATLINBURG     CLEAR     90  66  45 SW7       30.04F HX  92
$$

TNZ083-085-099-281900-
SOUTHEAST TENNESSEE

CITY           SKY/WX    TMP DP  RH WIND       PRES   REMARKS
CHATTANOOGA    MOSUNNY   89  64  43 VRB3      30.03F HX  90
$$

SKY/WX REPORTED AS FAIR MEANS FEW OR NO CLOUDS BELOW
12 THOUSAND FEET.




USA.gov is the U.S. government's official web portal to all federal, state and local government web resources and services.